{"data":{"norad_id":32384,"intl_designator":"2007-062A","name":"GPS BIIRM-5 (PRN 29)","alt_names":[],"object_type":"PAYLOAD","status":"ACTIVE","operator":null,"country":"US","launch_date":"2007-12-20","launch_site_code":"AFETR","launch_vehicle":null,"mission":null,"orbit_class":"UNKNOWN","rcs_meters":2,"size_class":null,"mass_kg":null,"dimensions":null,"purposes":["earth_obs","nav"],"wikipedia_slug":null,"has_3d_model":false,"image_url":null,"decayed_at":null,"tle_current":{"epoch":"2026-09-19T10:34:14.860128Z","epoch_age_seconds":106013,"freshness":"FRESH","line1":"1 32384U 07062A   26262.44044977  .00000024  00000+0  00000+0 0  9996","line2":"2 32384  54.9630 270.3556 0035955 170.2079 305.3937  2.00565342137402","mean_motion":2.00565342,"eccentricity":0.0035955,"inclination_deg":54.963,"raan_deg":270.3556,"arg_perigee_deg":170.2079,"mean_anomaly_deg":305.3937,"bstar":0,"rev_number":13740,"period_min":717.97050559214,"perigee_km":20086.560199219,"apogee_km":20277.554556992,"semimajor_km":26560.194378105,"source":"CELESTRAK","updated_at":"2026-09-20T09:00:46.086288Z"}}}